Wind_Speed
40 39 39 36 37 35 25 29 28 29 31 33 36 39 42 43 46 44 46 45 46 42 41 41 43 48 53 57 62 65 68 66 45 36 38 36 27 29 28 28 25 21 13
41 41 39 35 39 35 25 31 28 30 32 34 37 40 41 42 44 45 46 43 44 39 39 41 43 47 52 56 61 65 66 65 49 31 37 34 31 28 28 24 22 19 13
39 39 39 34 38 32 28 34 27 29 32 34 36 39 39 41 43 44 46 42 42 38 37 38 41 45 50 54 59 64 64 65 58 34 31 33 30 29 28 27 22 16 11
37 41 41 40 39 35 29 28 27 27 31 32 35 37 37 39 42 43 44 40 40 37 36 38 40 43 47 52 57 62 64 63 61 48 28 28 30 28 27 25 21 17 13
39 40 41 39 43 37 31 26 29 24 29 31 33 35 36 37 39 41 41 39 37 35 35 36 38 40 45 49 53 58 61 62 61 55 40 25 24 22 23 26 20 19 18
38 42 42 43 47 33 33 26 30 22 27 29 31 32 34 34 36 38 39 37 35 34 33 34 35 38 41 45 49 54 58 59 60 59 52 36 26 22 22 21 25 24 18
38 39 44 44 52 37 38 26 28 23 24 26 28 30 32 32 34 36 37 36 33 32 32 32 33 34 38 41 45 50 54 57 59 58 57 52 36 29 21 18 20 19 20
42 37 41 45 53 39 37 30 27 23 24 24 26 27 30 30 31 33 35 35 31 29 29 31 32 32 35 38 41 46 49 53 54 56 56 56 54 47 30 25 19 15 15
43 37 43 47 47 44 32 36 30 24 23 23 23 24 27 30 29 31 34 33 30 28 27 28 31 31 32 35 38 41 44 46 48 50 53 54 55 54 52 48 33 22 19
40 39 38 39 43 47 31 37 31 22 24 22 22 24 26 29 27 29 33 31 28 26 26 27 29 30 31 33 34 36 39 40 41 44 47 50 52 53 54 52 50 45 38
38 37 36 37 37 40 31 37 33 23 26 22 22 23 25 28 23 27 31 31 27 24 24 25 28 30 31 33 32 34 35 36 38 39 40 43 45 47 48 49 49 49 47
37 40 35 37 41 41 28 38 31 28 26 21 21 21 24 26 23 26 30 30 25 24 24 24 26 27 29 31 30 31 32 32 33 35 37 39 40 40 41 43 45 46 45
31 35 32 35 42 43 28 32 24 25 25 23 21 21 22 26 21 25 29 28 26 23 23 24 24 26 27 29 29 31 31 32 33 34 34 35 36 36 36 38 39 39 40
31 32 30 32 37 33 33 34 20 25 26 24 24 23 23 24 22 25 28 26 26 21 22 23 23 24 27 28 28 29 30 32 32 32 32 31 31 32 32 33 34 34 35
30 30 27 29 30 34 37 30 25 25 27 24 23 21 24 24 22 24 27 26 24 21 21 21 21 22 24 26 28 29 31 31 31 32 31 30 29 31 32 32 31 31 32
28 27 29 26 27 31 30 26 27 25 27 25 22 23 26 22 22 23 25 26 23 23 19 20 21 20 22 23 26 28 29 29 29 30 31 30 28 27 29 30 30 30 29
31 28 32 31 28 27 28 25 29 27 28 28 25 26 27 22 23 24 24 25 24 24 19 18 20 19 20 22 26 27 27 28 29 30 33 33 33 33 29 29 30 31 31
31 27 29 33 31 29 30 31 31 32 30 31 29 30 30 23 24 25 25 25 26 25 22 19 19 19 18 21 23 25 28 27 27 29 30 30 32 33 32 34 32 32 32
31 28 29 28 36 41 38 33 35 35 34 31 31 27 26 25 26 27 25 27 26 26 25 23 20 17 18 18 22 25 27 30 28 28 29 30 31 33 35 35 37 36 35
34 29 27 29 30 35 38 35 38 36 35 31 30 26 28 27 28 29 28 27 28 27 28 25 23 21 20 20 21 24 26 26 25 28 28 29 31 35 36 37 38 39 38
40 34 25 24 27 32 36 36 38 38 34 32 32 31 31 30 32 31 27 25 27 29 30 28 25 24 24 23 23 23 24 28 26 27 31 31 32 34 36 42 39 37 37
41 42 41 35 31 32 34 34 34 34 36 33 34 35 33 31 34 32 28 28 29 30 30 28 27 25 25 27 26 26 27 28 28 29 32 36 37 38 41 44 45 41 41
45 44 45 47 41 36 38 41 35 33 35 34 37 38 35 33 33 34 31 31 32 31 31 30 28 28 27 29 28 29 29 28 30 31 32 38 39 40 42 44 46 46 44
51 47 47 47 44 41 39 42 40 35 35 36 38 37 38 37 37 36 36 33 33 31 29 30 30 29 29 31 32 30 30 31 32 35 32 36 41 44 44 44 45 46 46
57 53 49 50 48 48 37 42 44 40 37 38 38 39 39 38 37 37 36 34 33 31 30 31 32 30 31 33 32 34 35 32 33 35 39 37 39 43 43 44 44 47 46
63 59 55 51 52 48 46 45 43 47 43 38 38 40 42 41 39 38 38 35 33 31 31 32 33 32 32 33 34 34 36 37 34 41 40 42 41 44 45 45 46 46 48
Wind_Direction
284 285 284 276 272 275 273 278 285 296 303 310 316 321 327 335 339 343 345 349 350 352 352 351 352 355 357 0 4 7 8 10 12 17 19 18 9 18 23 14 20 40 99
281 280 280 275 270 270 271 279 284 291 298 305 312 318 326 333 338 343 346 350 350 353 353 353 355 358 1 3 8 12 14 16 15 20 21 20 22 16 19 26 18 29 52
283 279 278 261 273 260 264 273 277 286 293 301 310 315 324 330 335 341 346 350 349 353 356 355 357 0 4 6 10 16 18 21 19 19 21 25 25 27 26 24 23 29 32
286 278 277 272 269 260 261 277 274 280 289 299 306 313 321 328 333 339 345 348 349 354 357 357 359 2 6 9 12 18 21 23 25 23 18 22 24 25 28 29 28 14 31
288 284 278 274 266 263 260 272 280 275 286 295 303 311 319 326 333 339 345 346 349 353 357 358 0 3 7 11 13 18 23 26 28 28 27 22 25 24 26 26 29 35 32
288 292 277 278 265 260 258 264 276 272 282 291 300 309 315 325 332 337 343 344 349 352 356 358 1 4 7 12 13 18 23 27 29 31 32 29 27 21 25 30 33 30 29
291 286 277 276 268 255 254 259 266 270 278 289 298 306 312 323 330 333 342 343 348 350 353 357 0 5 7 11 13 17 22 25 30 30 34 36 32 30 27 23 33 37 34
290 288 281 270 263 250 252 255 265 270 277 286 294 304 310 320 327 330 340 342 347 349 353 355 356 3 5 7 9 15 19 24 29 32 34 36 39 40 32 30 26 16 26
286 284 288 276 265 250 247 254 258 266 271 280 291 299 307 315 323 329 336 340 347 347 350 353 352 358 2 3 6 12 17 22 25 31 34 36 38 41 42 41 35 29 31
282 279 283 274 256 252 243 251 256 262 267 271 286 292 302 309 316 331 333 339 344 343 346 349 349 351 355 359 1 7 14 17 21 25 32 35 38 39 41 42 42 41 39
271 272 280 275 273 259 241 252 258 262 263 266 280 288 294 302 315 326 329 336 342 340 340 346 347 349 352 355 360 4 9 11 15 20 26 32 35 37 40 41 42 42 41
277 262 267 272 269 265 250 247 254 257 258 259 270 282 289 297 311 317 324 331 340 337 338 342 347 349 353 355 359 2 5 7 10 15 22 26 29 32 34 37 39 41 40
282 272 268 264 265 266 259 258 235 248 251 255 263 276 285 290 304 311 316 325 335 335 338 339 345 348 348 352 356 358 1 4 8 12 17 20 22 23 26 31 33 33 35
281 270 260 256 255 256 254 252 234 243 246 251 260 270 282 285 299 305 309 319 324 333 336 335 342 344 348 351 352 354 359 2 7 8 11 13 15 16 17 21 23 27 28
277 273 266 246 252 250 242 226 229 239 248 256 260 270 275 280 293 297 302 312 316 328 331 331 337 343 346 348 349 353 359 2 4 5 7 8 10 13 13 13 14 16 19
285 284 270 255 254 247 233 241 228 241 247 247 251 258 267 278 286 287 295 300 307 319 327 331 332 339 343 344 348 354 359 0 2 3 9 11 14 16 11 11 11 9 9
289 281 281 263 248 248 247 246 230 235 246 247 245 252 262 274 281 282 287 292 299 312 318 329 328 328 338 341 344 347 351 355 355 358 4 7 7 10 12 12 9 7 5
277 291 276 262 255 247 247 244 244 241 240 245 242 248 256 265 271 276 279 286 289 300 307 318 325 323 332 336 340 340 345 354 357 359 3 7 8 8 9 8 9 6 2
266 283 281 272 263 251 241 247 244 246 247 244 250 255 257 260 262 270 276 279 285 290 296 300 311 326 322 326 329 339 342 346 351 360 2 359 360 4 5 6 4 6 3
261 269 271 264 264 252 249 246 245 245 247 243 248 250 253 259 261 264 266 275 281 285 287 292 298 312 320 320 323 329 335 342 349 356 359 358 358 4 3 1 359 2 2
254 259 259 267 271 264 249 244 246 246 245 241 244 244 249 252 257 261 270 273 278 279 280 283 287 296 311 320 322 324 329 335 339 344 349 354 355 355 354 355 352 350 355
250 252 255 260 269 269 260 250 246 246 244 241 245 249 250 251 258 259 264 270 271 272 274 277 280 287 295 306 313 321 328 331 332 337 342 344 347 349 349 350 352 349 344
251 245 250 256 257 262 263 253 249 249 249 246 246 248 252 251 254 255 257 263 266 270 271 272 276 281 283 291 300 308 318 324 328 331 333 336 337 342 343 346 348 349 346
252 248 247 250 257 258 257 256 240 245 248 248 249 250 253 251 251 253 254 259 264 271 269 269 271 276 280 283 292 302 302 313 320 323 328 329 330 333 337 341 345 347 346
251 250 245 246 249 254 257 248 251 245 245 247 249 250 251 251 248 249 254 258 262 267 269 267 268 273 279 279 286 293 300 301 310 313 317 322 325 328 330 332 339 341 341
249 249 247 244 245 249 251 250 250 247 245 243 247 250 251 252 247 246 251 254 261 265 265 267 268 269 277 281 284 285 286 299 302 307 308 315 316 323 325 325 334 337 339
Height
5727 5725 5723 5721 5719 5719 5717 5718 5716 5715 5711 5707 5703 5699 5694 5687 5681 5674 5666 5658 5651 5643 5634 5626 5617 5607 5596 5581 5566 5547 5526 5507 5492 5484 5476 5468 5462 5457 5451 5446 5441 5435 5436
5718 5716 5715 5713 5712 5711 5711 5711 5710 5709 5706 5703 5698 5695 5689 5683 5677 5670 5663 5655 5648 5640 5633 5624 5615 5605 5593 5581 5566 5547 5527 5509 5495 5487 5479 5473 5467 5461 5456 5452 5447 5443 5439
5710 5708 5707 5706 5705 5703 5703 5703 5703 5703 5701 5698 5694 5690 5685 5680 5673 5668 5660 5652 5645 5638 5630 5622 5613 5603 5593 5582 5567 5549 5531 5513 5500 5490 5484 5477 5471 5466 5461 5457 5454 5450 5447
5703 5702 5700 5698 5698 5696 5695 5697 5695 5696 5695 5692 5689 5685 5681 5676 5670 5665 5658 5650 5643 5636 5629 5620 5611 5603 5593 5582 5569 5553 5537 5519 5505 5494 5487 5481 5476 5471 5466 5463 5459 5457 5454
5695 5693 5692 5691 5689 5688 5687 5688 5689 5689 5689 5687 5684 5680 5676 5673 5667 5662 5656 5648 5641 5634 5627 5619 5611 5603 5594 5584 5572 5559 5543 5527 5512 5501 5491 5484 5480 5476 5472 5467 5463 5461 5459
5685 5683 5683 5682 5679 5680 5680 5681 5682 5681 5682 5681 5678 5675 5671 5669 5664 5659 5653 5646 5638 5632 5625 5619 5611 5603 5595 5586 5575 5563 5549 5536 5521 5509 5498 5489 5483 5478 5473 5470 5467 5464 5462
5677 5674 5672 5672 5669 5672 5672 5674 5675 5674 5675 5675 5672 5669 5667 5664 5661 5656 5650 5643 5637 5630 5624 5618 5610 5603 5595 5587 5578 5566 5554 5543 5529 5519 5506 5495 5487 5482 5476 5472 5471 5468 5466
5668 5666 5663 5661 5658 5661 5663 5667 5668 5667 5669 5668 5666 5664 5662 5659 5658 5653 5646 5641 5634 5628 5622 5616 5610 5603 5596 5588 5579 5569 5559 5548 5538 5527 5516 5504 5495 5486 5480 5476 5472 5470 5468
5658 5654 5652 5650 5649 5650 5655 5658 5659 5660 5661 5662 5660 5658 5657 5655 5654 5649 5643 5639 5632 5626 5621 5615 5609 5602 5596 5589 5581 5573 5564 5554 5546 5535 5525 5515 5505 5495 5487 5479 5475 5472 5469
5647 5644 5643 5643 5642 5642 5646 5649 5650 5652 5653 5655 5654 5653 5651 5650 5650 5644 5639 5636 5630 5625 5619 5614 5608 5602 5595 5589 5583 5576 5567 5560 5552 5542 5532 5523 5514 5505 5496 5489 5483 5477 5472
5637 5636 5634 5634 5634 5634 5638 5640 5642 5645 5646 5647 5647 5647 5645 5645 5645 5640 5636 5633 5627 5623 5618 5612 5607 5600 5594 5589 5583 5576 5570 5564 5556 5549 5540 5530 5522 5515 5508 5501 5493 5487 5481
5627 5625 5624 5625 5626 5628 5630 5630 5634 5637 5638 5640 5641 5640 5640 5639 5638 5635 5632 5629 5625 5620 5615 5610 5605 5599 5593 5588 5582 5577 5571 5566 5560 5552 5544 5536 5530 5523 5517 5510 5503 5496 5489
5618 5617 5617 5615 5617 5619 5621 5622 5626 5628 5631 5633 5634 5634 5634 5634 5632 5631 5628 5625 5622 5618 5613 5608 5603 5598 5593 5587 5582 5577 5571 5566 5560 5553 5546 5540 5534 5529 5523 5516 5510 5504 5498
5610 5608 5606 5607 5608 5608 5611 5615 5616 5620 5622 5625 5626 5627 5627 5627 5627 5626 5623 5620 5618 5614 5610 5606 5602 5597 5592 5587 5582 5577 5571 5566 5560 5554 5548 5543 5538 5532 5526 5520 5514 5508 5502
5600 5598 5597 5597 5598 5599 5601 5606 5608 5610 5614 5616 5619 5621 5621 5620 5620 5619 5618 5615 5613 5611 5607 5603 5599 5596 5591 5586 5581 5576 5571 5565 5560 5554 5549 5544 5538 5533 5527 5521 5516 5510 5504
5590 5589 5589 5589 5590 5592 5594 5596 5599 5603 5606 5609 5611 5613 5614 5614 5614 5613 5612 5610 5608 5606 5603 5600 5597 5593 5589 5584 5580 5576 5570 5564 5559 5553 5548 5543 5538 5534 5528 5522 5516 5511 5505
5583 5581 5582 5583 5584 5585 5587 5588 5591 5593 5597 5601 5602 5605 5606 5607 5608 5607 5605 5603 5602 5601 5600 5597 5593 5591 5587 5583 5579 5574 5569 5564 5559 5553 5548 5542 5537 5532 5527 5521 5516 5511 5506
5574 5571 5572 5575 5576 5577 5578 5580 5582 5583 5587 5591 5593 5596 5598 5599 5600 5600 5599 5597 5595 5594 5594 5592 5590 5587 5584 5580 5577 5573 5568 5563 5558 5553 5547 5542 5536 5531 5524 5520 5515 5509 5503
5564 5564 5563 5565 5567 5569 5569 5571 5574 5576 5579 5581 5583 5588 5590 5591 5592 5593 5591 5590 5589 5588 5587 5586 5585 5583 5582 5578 5574 5571 5567 5563 5558 5552 5547 5541 5536 5531 5524 5519 5513 5507 5502
5553 5554 5554 5556 5558 5559 5560 5563 5566 5567 5569 5572 5575 5579 5579 5583 5585 5585 5582 5582 5581 5581 5580 5578 5578 5577 5576 5574 5571 5568 5564 5560 5556 5551 5546 5541 5535 5530 5525 5519 5512 5506 5500
5542 5543 5544 5546 5547 5549 5551 5554 5555 5558 5560 5563 5566 5568 5569 5573 5575 5575 5574 5573 5573 5573 5572 5571 5570 5570 5569 5567 5565 5563 5560 5558 5553 5548 5544 5539 5534 5529 5523 5518 5511 5503 5497
5529 5532 5534 5535 5537 5539 5541 5542 5544 5547 5551 5554 5557 5558 5559 5563 5566 5566 5565 5565 5565 5565 5565 5564 5563 5562 5562 5560 5558 5556 5554 5551 5548 5545 5541 5535 5530 5524 5520 5514 5508 5501 5494
5515 5519 5521 5523 5526 5528 5530 5533 5535 5538 5542 5545 5547 5548 5551 5556 5557 5557 5556 5556 5556 5557 5557 5556 5556 5555 5554 5553 5551 5549 5547 5545 5542 5539 5535 5530 5525 5520 5515 5510 5504 5497 5490
5498 5503 5507 5510 5514 5517 5519 5521 5524 5526 5529 5533 5536 5538 5542 5546 5547 5548 5546 5546 5547 5548 5548 5548 5548 5547 5547 5545 5543 5542 5541 5538 5535 5532 5529 5525 5520 5515 5510 5504 5499 5492 5485
5481 5487 5493 5496 5500 5504 5506 5509 5513 5515 5518 5521 5525 5529 5532 5534 5536 5537 5538 5537 5537 5538 5539 5539 5539 5539 5539 5538 5536 5534 5532 5531 5528 5526 5522 5519 5515 5510 5504 5499 5493 5486 5480
5463 5470 5476 5481 5486 5489 5493 5497 5500 5503 5506 5509 5514 5517 5520 5522 5525 5526 5527 5527 5527 5529 5530 5530 5529 5529 5530 5529 5528 5526 5525 5523 5521 5518 5515 5511 5507 5503 5498 5492 5486 5480 5474